Regional Weather Roundup
Issued by NWS Mt. Holly, NJ

Home | Current Version | Previous Version | Text Only | Print | Product List | Glossary On
Versions: 1 2 3 4 5 6 7 8 9 10 11 12 13 14 15 16 17 18 19 20 21 22 23 24 25 26 27 28 29 30 31 32 33 34 35 36 37 38 39 40 41 42 43 44 45 46 47 48 49 50
000
ASUS41 KPHI 230712
RWRPHI

REGIONAL WEATHER ROUNDUP
NATIONAL WEATHER SERVICE MOUNT HOLLY NJ
300 AM EDT FRI JUN 23 2017

NOTE:  "FAIR" INDICATES FEW OR NO CLOUDS BELOW 12,000 FEET WITH NO
SIGNIFICANT WEATHER AND/OR OBSTRUCTIONS TO VISIBILITY.

 * = STATION DOES NOT REPORT PRECIPITATION (E.G. RAIN, SNOW, ETC.)
        OR FOG.

NJZ015>026-230800-
SOUTHERN NEW JERSEY

CITY           SKY/WX    TMP DP  RH WIND       PRES   REMARKS
POMONA         PTCLDY    76  73  91 SW6       29.88
WILDWOOD*      CLOUDY    76  73  91 SW9       29.90F
MILLVILLE      MOCLDY    75  75 100 SW5       29.88F
WRIGHTSTOWN    MOCLDY    73  71  93 S3        29.85F
MOUNT HOLLY    MOCLDY    73  71  93 CALM      29.87F
TRENTON        CLOUDY    75  71  87 SW3       29.86F

$$
NJZ001>014-230800-
NORTHERN NEW JERSEY

CITY           SKY/WX    TMP DP  RH WIND       PRES   REMARKS
SUSSEX         CLOUDY    70  68  93 CALM      29.85F
ANDOVER*         N/A     72  69  90 CALM      29.86F
MORRISTOWN     CLOUDY    75  70  83 CALM      29.85F
NEWARK         CLOUDY    79  70  74 SW9       29.85F
TETERBORO      CLOUDY    78  70  76 S5        29.83F
CALDWELL       MOCLDY    79  69  71 CALM      29.85F
SOMERVILLE     PTCLDY    72  70  93 CALM      29.84F
ALLAIRE*       CLOUDY    75  71  87 SW7       29.88F
TOMS RIVER*    MOCLDY    73  71  93 SW3       29.88F

$$
PAZ043-044-047-054-055-060>062-066>071-230800-
EASTERN PENNSYLVANIA

CITY           SKY/WX    TMP DP  RH WIND       PRES   REMARKS
PHILADELPHIA   CLOUDY    78  72  81 SW5       29.87F
NORTH PHILA    PTCLDY    79  72  79 CALM      29.87F
BLUE BELL*     PTCLDY    72  70  94 CALM      29.88F
DOYLESTOWN     PTCLDY    74  70  87 CALM      29.86F
QUAKERTOWN*    CLOUDY    70  70 100 CALM      29.89F
PERKASIE*      FAIR      68  68 100 CALM      29.89F FOG
POTTSTOWN      PTCLDY    73  71  93 CALM      29.89F
LANCASTER      MOCLDY    72  71  97 CALM      29.87F
COATESVILLE    CLOUDY    73  70  88 CALM      29.90F
READING        PTCLDY    73  73 100 CALM      29.87F
ALLENTOWN      MOCLDY    73  69  87 SW7       29.87F
MOUNT POCONO   PTCLDY    68  67  96 W5        29.92F
HAZLETON         N/A     70  64  83 CALM      29.93F
LEHIGHTON      FAIR      70  68  94 CALM      29.88F FOG
WILKES BARRE   PTCLDY    73  68  84 CALM      29.86F

$$
DEZALL-MDZ008-012-015-019-020-230800-
DELAWARE AND EASTERN MARYLAND

CITY           SKY/WX    TMP DP  RH WIND       PRES   REMARKS
WILMINGTON     CLEAR     77  73  87 SW6       29.88F
DOVER          PTCLDY    76  76 100 S10       29.87F
GEORGETOWN     PTCLDY    76  73  91 SW6       29.91F
EASTON         PTCLDY    79  72  79 W6        29.94F
ABERDEEN       CLOUDY    75  73  95 CALM      29.88F
PATUXENT       PTCLDY    77  69  76 SW12      29.91F
OCEAN CITY     MOCLDY    76  73  91 SW7       29.92F
WALLOPS ISLAND PTCLDY    77  73  87 SW6       29.93F
CAMBRIDGE      CLEAR     77  70  78 VRB3      29.91F
SALISBURY      MOCLDY    74  74 100 S6        29.92F

$$
PAZ001-021-NYZ056-072-MDZ011-DCZ001-230800-
OTHER NEARBY LOCATIONS

CITY           SKY/WX    TMP DP  RH WIND       PRES   REMARKS
HARRISBURG     CLOUDY    72  70  93 CALM      29.86F
STATE COLLEGE  MOCLDY    67  65  93 CALM      29.88F
WILLIAMSPORT   MOCLDY    68  67  96 CALM      29.84F
BINGHAMTON     NOT AVBL
NEW YORK CITY  CLOUDY    79  69  71 VRB5      29.87F
BALTIMORE      CLOUDY    76  73  91 SW6       29.87F
WASHINGTON DC  CLOUDY    79  72  79 SW10      29.90F

$$



USA.gov is the U.S. government's official web portal to all federal, state and local government web resources and services.